Torna al catalogo

FENGYUN 1C DEB

AttivoSSO
NORAD 31361·DEBRIS·🇨🇳 China

Lanciato May 10, 1999 da Taiyuan Satellite Launch Center

Loading…

Prossimi Passaggi (prossime 24 ore)

TLE

AggiornatoSource: Space-Track

Epoca: Sep 12, 2026, 08:54 UTC

1 31361U 99025BRR 26255.37128985  .00000115  00000-0  76324-4 0  9995
2 31361  98.5843 226.0989 0045213   3.0842 357.0604 14.17877738  4227

Traccia FENGYUN 1C DEB in tempo reale con AllMySat

Download on the App Store